Regional Weather Roundup
Issued by NWS

Home | Current Version | Previous Version | Graphics & Text | Print | Product List | Glossary On
Versions: 1 2 3 4 5 6 7 8 9 10 11 12 13 14 15 16 17 18 19 20 21 22 23 24 25 26 27 28 29 30 31 32 33 34 35 36 37 38 39 40 41 42 43 44 45 46 47 48 49 50
000
ASUS43 KLMK 301810
RWRKY
KENTUCKY REGIONAL WEATHER ROUNDUP
NATIONAL WEATHER SERVICE LOUISVILLE KY
200 PM EDT MON MAY 30 2016

NOTE "FAIR" INDICATES FEW OR NO CLOUDS BELOW 12,000 FEET
WITH NO SIGNIFICANT WEATHER AND/OR OBSTRUCTIONS TO VISIBILITY.

KYZ001>023-026-027-061>063-070>075-301900-
WESTERN AND SOUTH CENTRAL KENTUCKY

CITY           SKY/WX    TMP DP  RH WIND       PRES   REMARKS
PADUCAH        SUNNY     88  60  38 E7        30.04F
HENDERSON      SUNNY     84  57  39 N5        30.03F
OWENSBORO      SUNNY     85  60  42 NE8       30.04F
HOPKINSVILLE   SUNNY     84  62  47 VRB7      30.04F
BOWLING GREEN  MOSUNNY   85  58  39 VRB6      30.04F
GLASGOW        MOSUNNY   86  55  35 N5        30.04S
$$

KYZ024-025-028>034-038-045-046-053-301900-
NORTH CENTRAL KENTUCKY

CITY           SKY/WX    TMP DP  RH WIND       PRES   REMARKS
LOUISVILLE/SDF PTSUNNY   86  57  37 NW6       30.03F
LOUISVILLE/LOU MOSUNNY   86  59  39 NE7       30.04F
FORT KNOX      SUNNY     83  58  42 N6        30.03F
$$

KYZ035>037-039>044-047>052-055>060-089>105-301900-
NORTHEAST KENTUCKY

CITY           SKY/WX    TMP DP  RH WIND       PRES   REMARKS
LEXINGTON      SUNNY     84  61  45 NW5       30.04F
COVINGTON      MOSUNNY   85  57  38 NW7       30.04F
FRANKFORT      MOSUNNY   85  58  39 NE3       30.03F
$$

KYZ054-064>069-076>088-106>120-301900-
SOUTHEAST KENTUCKY

CITY           SKY/WX    TMP DP  RH WIND       PRES   REMARKS
JACKSON        MOSUNNY   79  64  60 VRB5      30.05F
LONDON         MOSUNNY   84  61  45 VRB5      30.04F
SOMERSET       MOSUNNY   81  59  47 N6        30.05S
MIDDLESBORO    MOSUNNY   83  65  53 N10       30.02F
MONTICELLO     CLEAR     84  62  47 N15G22    30.05F
$$





USA.gov is the U.S. government's official web portal to all federal, state and local government web resources and services.